F6IKY-5 Weather Reports


Display with metric or nautical units.
time (UTC)temp
F
wind
direction
speed
MPH
gust
MPH
rain 1hr
in
rain 24hr
in
rain mn
in
humidity
%
barometer
mb
20200926010546 47 234 5.0 10.0 0.00 0.27 0.00 87 1010.9
20200926005936 47 276 4.0 4.0 0.00 0.27 0.00 87 1011.0
20200926005544 47 244 4.0 8.0 0.00 0.27 0.00 87 1011.0
20200926004544 48 222 3.0 7.0 0.00 0.28 0.00 87 1011.0
20200926004436 48 223 3.0 7.0 0.00 0.28 0.00 87 1011.1
20200926003544 48 252 5.0 7.0 0.00 0.28 0.00 87 1010.9
20200926002947 48 252 2.0 2.0 0.00 0.28 0.00 87 1010.9
20200926002936 48 252 2.0 2.0 0.00 0.28 0.00 87 1010.9
20200926002545 48 253 3.0 6.0 0.00 0.28 0.00 87 1010.9
20200926001543 48 257 3.0 4.0 0.00 0.28 0.00 87 1010.9
20200926001440 48 247 3.0 4.0 0.00 0.28 0.00 87 1010.9
20200926000544 48 209 3.0 5.0 0.00 0.28 0.00 87 1010.9
20200925235935 49 245 3.0 4.0 0.00 0.28 0.00 87 1010.9
20200925235544 49 232 4.0 6.0 0.00 0.28 0.00 88 1010.9
20200925234544 49 242 3.0 4.0 0.00 0.28 0.00 88 1010.9
20200925234440 49 211 2.0 4.0 0.00 0.28 0.00 88 1010.9
20200925233544 49 241 2.0 4.0 0.00 0.28 0.00 89 1010.9
20200925232937 49 237 3.0 4.0 0.00 0.28 0.00 89 1010.9
20200925232544 49 302 2.0 3.0 0.00 0.28 0.00 89 1011.0
20200925231544 49 282 3.0 5.0 0.00 0.28 0.00 89 1011.0
20200925231441 49 236 4.0 5.0 0.00 0.28 0.00 89 1011.0
20200925230544 48 249 2.0 4.0 0.00 0.28 0.00 89 1011.0
20200925225936 48 257 3.0 3.0 0.00 0.28 0.00 89 1011.0
20200925225544 48 250 3.0 6.0 0.00 0.28 0.00 89 1011.0
20200925224544 48 249 5.0 8.0 0.00 0.28 0.00 89 1011.0
20200925224438 48 266 3.0 7.0 0.00 0.28 0.00 89 1010.9
20200925223543 48 242 4.0 8.0 0.01 0.28 0.00 89 1010.9
20200925222936 48 235 2.0 3.0 0.01 0.28 0.00 90 1010.9
20200925222544 48 237 3.0 8.0 0.01 0.28 0.00 90 1010.9
20200925221544 48 247 2.0 6.0 0.01 0.28 0.00 90 1010.8
20200925221437 48 220 3.0 6.0 0.01 0.28 0.00 90 1010.8
20200925220545 48 271 4.0 7.0 0.01 0.28 0.00 90 1010.8
20200925215937 48 196 1.0 2.0 0.01 0.28 0.00 90 1010.6
20200925215548 48 223 2.0 5.0 0.01 0.28 0.28 89 1010.6
20200925214546 48 220 2.0 4.0 0.01 0.28 0.28 90 1010.6
20200925214436 48 224 3.0 4.0 0.01 0.28 0.28 90 1010.6
20200925213544 48 196 3.0 6.0 0.01 0.28 0.28 89 1010.6
20200925212935 48 234 3.0 3.0 0.00 0.28 0.27 89 1010.6
20200925212543 48 266 2.0 5.0 0.02 0.28 0.27 89 1010.7
20200925211544 48 266 1.0 5.0 0.02 0.28 0.27 90 1010.6
20200925211435 48 197 5.0 5.0 0.02 0.28 0.27 90 1010.6
20200925210546 48 266 2.0 3.0 0.02 0.28 0.27 90 1010.4
20200925205937 48 235 2.0 2.0 0.02 0.28 0.27 90 1010.3
20200925205545 48 232 1.0 4.0 0.02 0.28 0.27 90 1010.3
20200925204548 48 271 2.0 5.0 0.02 0.28 0.27 89 1010.2
20200925204437 48 209 3.0 5.0 0.02 0.28 0.27 89 1010.3
20200925203546 48 251 3.0 4.0 0.02 0.28 0.27 88 1010.2
20200925202937 49 258 1.0 3.0 0.02 0.28 0.27 87 1010.3
20200925202545 49 283 1.0 5.0 0.02 0.27 0.26 87 1010.3
20200925201544 49 232 1.0 10.0 0.01 0.26 0.25 85 1010.2
20200925201517 49 187 3.0 10.0 0.01 0.26 0.25 85 1010.2
20200925201436 49 187 3.0 10.0 0.01 0.26 0.25 85 1010.2
20200925200543 49 239 1.0 3.0 0.00 0.25 0.24 85 1010.2
20200925195936 49 238 3.0 3.0 0.00 0.25 0.24 84 1010.1
20200925195544 49 238 3.0 3.0 0.00 0.25 0.24 84 1010.0
20200925194545 49 207 1.0 3.0 0.00 0.25 0.24 84 1009.9
20200925194436 49 207 2.0 3.0 0.00 0.25 0.24 84 1009.8
20200925193545 49 232 2.0 4.0 0.00 0.25 0.24 84 1009.7
20200925192936 49 266 3.0 3.0 0.00 0.25 0.24 84 1009.6
20200925192546 49 266 1.0 4.0 0.00 0.25 0.24 85 1009.6
20200925191544 49 285 2.0 2.0 0.00 0.25 0.24 85 1009.4
20200925191436 49 285 2.0 2.0 0.00 0.25 0.24 85 1009.4
20200925190545 49 284 1.0 3.0 0.00 0.25 0.24 84 1009.4
20200925185936 49 297 1.0 2.0 0.00 0.25 0.24 84 1009.3
20200925185543 49 298 1.0 3.0 0.00 0.25 0.24 84 1009.2
20200925184543 49 253 0.0 3.0 0.00 0.25 0.24 84 1009.0
20200925184441 49 253 1.0 3.0 0.00 0.25 0.24 83 1009.0
20200925183545 49 253 1.0 7.0 0.00 0.25 0.24 83 1008.8
20200925182937 49 260 3.0 4.0 0.00 0.25 0.24 83 1008.7
20200925182545 49 276 2.0 3.0 0.00 0.25 0.24 83 1008.8
20200925181546 49 320 1.0 3.0 0.00 0.25 0.24 84 1008.5
20200925181436 49 322 0.0 3.0 0.00 0.25 0.24 83 1008.5
20200925180546 49 313 2.0 3.0 0.00 0.25 0.24 84 1008.4
20200925175938 49 343 2.0 3.0 0.00 0.25 0.24 85 1008.2
20200925175550 49 271 4.0 4.0 0.00 0.25 0.24 85 1008.2
20200925174546 49 247 2.0 4.0 0.00 0.25 0.24 84 1007.9
20200925174436 49 257 0.0 3.0 0.00 0.25 0.24 84 1007.8
20200925173543 49 244 1.0 8.0 0.00 0.25 0.24 84 1007.6
20200925172938 49 340 3.0 3.0 0.00 0.25 0.24 84 1007.6
20200925172547 50 352 3.0 10.0 0.00 0.26 0.24 84 1007.5
20200925171543 50 321 2.0 8.0 0.00 0.27 0.24 86 1007.5
20200925171436 50 339 1.0 8.0 0.00 0.27 0.24 86 1007.5
20200925170546 50 338 5.0 10.0 0.00 0.27 0.24 87 1007.4
20200925165936 50 280 6.0 6.0 0.00 0.27 0.24 88 1007.3
20200925165550 50 266 2.0 7.0 0.00 0.27 0.24 88 1007.2
20200925164545 50 244 1.0 5.0 0.00 0.27 0.24 89 1007.0
20200925164436 50 244 1.0 5.0 0.00 0.27 0.24 89 1007.1
20200925163544 51 276 1.0 3.0 0.03 0.28 0.24 88 1007.0
20200925162936 51 276 2.0 3.0 0.03 0.28 0.24 88 1006.8
20200925162544 51 283 2.0 3.0 0.06 0.29 0.24 88 1006.7
20200925161547 51 284 1.0 3.0 0.06 0.31 0.24 87 1006.7
20200925161436 50 280 3.0 3.0 0.06 0.31 0.24 88 1006.7
20200925160544 50 313 2.0 8.0 0.06 0.31 0.24 87 1006.6
20200925160032 49 260 3.0 3.0 0.06 0.31 0.24 86 1006.6
20200925155936 49 260 3.0 3.0 0.06 0.31 0.24 86 1006.6
20200925155543 49 260 1.0 5.0 0.06 0.38 0.24 86 1006.5
20200925154543 49 357 2.0 4.0 0.06 0.91 0.24 84 1006.6
20200925154437 49 358 3.0 4.0 0.06 0.91 0.24 84 1006.6
20200925153543 51 338 3.0 15.0 0.06 0.94 0.24 82 1006.5
20200925152937 52 346 3.0 3.0 0.03 0.92 0.21 87 1006.3
20200925152547 53 47 4.0 6.0 0.02 0.91 0.20 86 1005.9
20200925151545 54 157 3.0 6.0 0.08 0.90 0.19 85 1005.7
20200925151436 54 157 3.0 6.0 0.08 0.90 0.19 85 1005.7
20200925150543 53 181 3.0 6.0 0.09 0.90 0.19 85 1005.7
20200925145937 54 165 6.0 6.0 0.09 0.90 0.19 84 1005.7
20200925145545 54 192 3.0 7.0 0.14 0.90 0.19 86 1005.7
20200925144546 53 271 3.0 6.0 0.14 0.90 0.19 87 1005.6
20200925144444 53 203 3.0 6.0 0.14 0.90 0.19 87 1005.6
20200925143545 51 204 3.0 6.0 0.15 0.90 0.19 88 1005.8
20200925142937 50 222 3.0 3.0 0.14 0.89 0.18 86 1005.8
20200925142544 50 226 2.0 9.0 0.14 0.89 0.18 84 1005.8
20200925141545 50 271 3.0 20.0 0.13 0.88 0.17 80 1005.8
20200925141440 51 342 3.0 20.0 0.13 0.87 0.17 80 1005.9
20200925140553 53 338 1.0 3.0 0.07 0.82 0.11 80 1005.2
20200925135937 54 339 0.0 1.0 0.06 0.81 0.10 79 1004.8
20200925135544 55 331 3.0 5.0 0.04 0.78 0.08 79 1005.1
20200925134546 54 255 3.0 8.0 0.01 0.76 0.05 76 1005.1
20200925134436 54 266 0.0 8.0 0.01 0.76 0.05 76 1005.1
20200925133546 55 261 1.0 8.0 0.01 0.76 0.05 75 1005.2
20200925132936 56 276 3.0 6.0 0.00 0.75 0.04 69 1005.2
20200925132546 56 304 3.0 10.0 0.00 0.75 0.04 66 1005.1
20200925131546 58 257 3.0 8.0 0.00 0.75 0.04 64 1005.1
20200925131524 58 239 3.0 8.0 0.00 0.75 0.04 65 1005.0
20200925131436 58 239 3.0 8.0 0.00 0.75 0.04 65 1005.0
20200925130545 57 169 8.0 13.0 0.00 0.75 0.04 67 1005.0
20200925125938 57 266 12.0 12.0 0.00 0.75 0.04 67 1004.9
20200925125546 57 285 9.0 14.0 0.00 0.75 0.04 69 1004.9
20200925124544 58 342 3.0 12.0 0.00 0.75 0.04 68 1004.9
20200925124520 58 241 5.0 12.0 0.00 0.75 0.04 69 1004.8
20200925124436 58 241 5.0 12.0 0.00 0.75 0.04 69 1004.8
20200925123543 56 276 1.0 12.0 0.01 0.75 0.04 73 1004.6
20200925122938 55 246 8.0 8.0 0.01 0.75 0.04 74 1004.6
20200925122544 55 290 9.0 11.0 0.01 0.75 0.04 74 1004.6
20200925121545 56 242 8.0 14.0 0.01 0.76 0.04 73 1004.5
20200925121436 56 259 3.0 10.0 0.01 0.76 0.04 73 1004.5
20200925120543 56 271 3.0 12.0 0.01 0.76 0.04 76 1004.5
20200925115935 55 266 11.0 11.0 0.01 0.76 0.04 76 1004.4
20200925115543 56 289 10.0 17.0 0.01 0.76 0.04 75 1004.3
20200925114545 55 221 3.0 17.0 0.01 0.78 0.04 78 1004.0
20200925114435 55 214 3.0 17.0 0.01 0.78 0.04 78 1004.0
20200925113544 54 209 10.0 21.0 0.02 0.78 0.04 77 1004.0
20200925112935 56 246 12.0 12.0 0.01 0.77 0.03 71 1003.9
20200925112543 57 271 10.0 16.0 0.02 0.77 0.03 69 1003.8
20200925111546 58 258 9.0 15.0 0.02 0.77 0.03 72 1003.7
20200925111436 57 212 6.0 14.0 0.02 0.77 0.03 73 1003.8
20200925110544 57 271 4.0 13.0 0.02 0.77 0.03 76 1003.9
20200925105944 56 195 10.0 10.0 0.02 0.77 0.03 78 1004.0
20200925105544 55 222 5.0 15.0 0.02 0.77 0.03 79 1004.2
20200925104544 54 193 10.0 12.0 0.02 0.77 0.03 79 1004.4
20200925104436 54 209 7.0 11.0 0.02 0.77 0.03 80 1004.4
20200925103544 53 222 10.0 17.0 0.02 0.77 0.03 80 1004.6
20200925102936 55 215 9.0 9.0 0.02 0.76 0.03 74 1004.9
20200925102543 56 231 3.0 10.0 0.01 0.76 0.02 70 1004.8
20200925101545 56 221 8.0 20.0 0.01 0.76 0.02 71 1005.0
20200925101436 56 224 5.0 20.0 0.01 0.76 0.02 70 1004.9
20200925100543 56 259 9.0 10.0 0.00 0.75 0.01 72 1005.1
20200925095937 56 201 10.0 10.0 0.00 0.75 0.01 73 1005.1
20200925095543 57 271 5.0 14.0 0.00 0.75 0.01 67 1005.3
20200925094544 58 154 9.0 17.0 0.00 0.75 0.01 63 1005.2
20200925094438 58 271 13.0 17.0 0.00 0.75 0.01 63 1005.2
20200925093544 58 271 3.0 13.0 0.00 0.75 0.01 65 1005.3
20200925092936 58 209 3.0 5.0 0.00 0.75 0.01 67 1005.4
20200925092544 57 271 10.0 11.0 0.00 0.75 0.01 70 1005.6
20200925091544 57 271 4.0 10.0 0.00 0.75 0.01 75 1005.5
20200925091436 57 159 4.0 10.0 0.00 0.75 0.01 75 1005.4
20200925090544 56 207 12.0 14.0 0.00 0.75 0.01 81 1005.7
20200925085937 54 174 6.0 7.0 0.00 0.75 0.01 82 1005.8
20200925085549 54 271 4.0 10.0 0.00 0.75 0.01 82 1005.8
20200925084545 53 192 6.0 9.0 0.00 0.75 0.01 82 1005.9
20200925084437 54 169 7.0 9.0 0.00 0.75 0.01 82 1005.8
20200925083543 53 195 3.0 10.0 0.00 0.75 0.01 81 1005.9
20200925082937 53 156 10.0 10.0 0.00 0.75 0.01 82 1005.9
20200925082544 53 182 5.0 11.0 0.00 0.75 0.01 81 1005.9
20200925081543 53 169 5.0 10.0 0.00 0.75 0.01 81 1005.8
20200925081438 53 211 6.0 10.0 0.00 0.75 0.01 81 1005.7
20200925080546 53 195 7.0 9.0 0.00 0.75 0.01 80 1005.7
20200925075936 53 203 4.0 4.0 0.00 0.75 0.01 80 1005.7
20200925075544 53 271 4.0 11.0 0.00 0.75 0.01 80 1005.7
20200925074544 53 159 6.0 10.0 0.00 0.75 0.01 81 1005.7
20200925074436 53 147 8.0 10.0 0.00 0.75 0.01 81 1005.7
20200925073545 53 211 3.0 10.0 0.00 0.75 0.01 82 1005.5
20200925072939 53 158 3.0 4.0 0.00 0.75 0.01 83 1005.5
20200925072544 52 160 3.0 10.0 0.00 0.75 0.01 84 1005.6
20200925071544 52 173 3.0 9.0 0.00 0.75 0.01 85 1005.5
20200925071436 52 171 3.0 9.0 0.00 0.75 0.01 85 1005.6
20200925070544 51 163 6.0 7.0 0.00 0.75 0.01 85 1005.6
20200925065935 51 138 3.0 3.0 0.00 0.75 0.01 85 1005.5
20200925065544 51 271 3.0 6.0 0.00 0.75 0.01 85 1005.6
20200925064543 51 171 3.0 8.0 0.00 0.75 0.01 85 1005.5
20200925064435 51 200 3.0 8.0 0.00 0.75 0.01 85 1005.4
20200925063545 50 271 3.0 10.0 0.00 0.75 0.01 85 1005.3
20200925063016 50 271 4.0 5.0 0.00 0.75 0.01 86 1005.3
20200925062936 50 271 4.0 5.0 0.00 0.75 0.01 86 1005.3
20200925062544 50 147 5.0 8.0 0.00 0.75 0.01 85 1005.3
20200925061544 50 145 4.0 8.0 0.00 0.75 0.01 84 1005.6
20200925061436 50 149 5.0 8.0 0.00 0.75 0.01 84 1005.5
20200925060545 50 145 4.0 7.0 0.00 0.75 0.01 83 1005.5
20200925055937 50 153 4.0 4.0 0.00 0.75 0.01 83 1005.4
20200925055545 50 166 3.0 8.0 0.00 0.75 0.01 83 1005.4
20200925054546 51 150 5.0 8.0 0.00 0.75 0.01 83 1005.4
20200925054439 51 156 3.0 8.0 0.00 0.75 0.01 83 1005.5
20200925053543 51 169 3.0 5.0 0.00 0.75 0.01 84 1005.3
20200925052935 51 201 2.0 3.0 0.00 0.75 0.01 85 1005.2
20200925052543 51 176 2.0 7.0 0.00 0.75 0.01 85 1005.3
20200925051545 51 207 6.0 7.0 0.00 0.75 0.01 86 1005.4
20200925051436 51 271 3.0 7.0 0.00 0.75 0.01 86 1005.4
20200925050548 51 176 5.0 8.0 0.00 0.75 0.01 87 1005.7
20200925045937 51 157 6.0 8.0 0.00 0.75 0.01 88 1005.8
20200925045544 51 148 4.0 9.0 0.00 0.75 0.01 88 1005.8
20200925044544 51 192 3.0 7.0 0.00 0.75 0.01 90 1005.5
20200925044440 51 166 3.0 7.0 0.00 0.75 0.01 90 1005.4
20200925043549 51 166 3.0 6.0 0.00 0.75 0.01 92 1005.7
20200925042935 51 178 3.0 4.0 0.00 0.75 0.01 92 1005.8
20200925042543 51 170 3.0 7.0 0.00 0.75 0.01 92 1005.9
20200925041544 51 165 3.0 6.0 0.00 0.75 0.01 92 1005.5
20200925041435 51 162 3.0 6.0 0.00 0.75 0.01 92 1005.5
20200925040546 52 182 3.0 4.0 0.00 0.75 0.01 91 1005.7
20200925035937 52 183 1.0 2.0 0.00 0.75 0.01 91 1005.5
20200925035549 52 184 3.0 3.0 0.00 0.75 0.01 91 1005.6
20200925034545 52 181 3.0 6.0 0.00 0.75 0.01 91 1005.6
20200925034438 52 182 3.0 6.0 0.00 0.75 0.01 91 1005.6
20200925033547 52 174 3.0 9.0 0.00 0.75 0.01 91 1005.4
20200925032936 52 226 3.0 3.0 0.00 0.75 0.01 90 1005.7
20200925032544 52 170 5.0 5.0 0.00 0.75 0.01 90 1005.5
20200925031544 52 182 3.0 6.0 0.00 0.75 0.01 90 1005.7
20200925031436 52 271 3.0 6.0 0.00 0.75 0.01 90 1005.7
20200925030545 52 160 3.0 5.0 0.00 0.75 0.01 89 1005.4
20200925025945 52 166 3.0 3.0 0.00 0.75 0.01 89 1005.6
20200925025544 52 168 2.0 5.0 0.00 0.75 0.01 89 1005.7
20200925024544 52 271 3.0 6.0 0.00 0.75 0.01 89 1006.2
20200925024436 52 186 5.0 6.0 0.00 0.75 0.01 89 1006.2
20200925023546 52 168 3.0 5.0 0.00 0.75 0.01 88 1005.9
20200925022937 52 195 3.0 3.0 0.00 0.75 0.01 88 1006.1
20200925022544 52 159 3.0 6.0 0.00 0.75 0.01 88 1006.3
20200925021544 52 166 3.0 4.0 0.00 0.75 0.01 87 1006.0
20200925021436 52 166 3.0 4.0 0.00 0.75 0.01 87 1005.9
20200925020543 53 271 3.0 5.0 0.00 0.75 0.01 85 1005.8
20200925015935 53 182 3.0 3.0 0.00 0.75 0.01 85 1005.8
20200925015543 53 172 3.0 7.0 0.00 0.75 0.01 85 1005.8
20200925014551 53 234 5.0 9.0 0.01 0.75 0.01 84 1005.9
20200925014436 53 207 3.0 9.0 0.01 0.75 0.01 84 1005.9
20200925013544 53 234 3.0 10.0 0.01 0.75 0.01 85 1005.8
20200925012935 53 224 3.0 10.0 0.01 0.75 0.01 87 1005.9
20200925012544 53 271 3.0 9.0 0.01 0.75 0.01 88 1005.9
20200925011545 53 165 8.0 13.0 0.01 0.75 0.01 89 1005.8
20200925011437 53 213 2.0 13.0 0.01 0.75 0.01 89 1005.9